DELTA 1 DEB, 10866

Orbit data source: Space-Track

DELTA 1 DEB, 10866 is space debris in SSO originally from a launch on Thu, 29 Jul 1976 UTC launched from the Air Force Western Test Range (AFWTR). Debris objects in space refer to the collection of defunct objects orbiting the Earth. Examples of debris include non-operational satellites, rocket bodies, and fragments generated from explosions, collisions, or faulty payload assembly.

Loading next visibility...
Identifier
10866, 1976-077CU
Orbit
SSO
Country
Flag of USUS
Related business
Manufacturer
Unknown
Mission
Spacecraft
Bus & Motor
Unknown
Mass
Unknown
Launch date (UTC)
1976-07-29 (49 years ago)
Launch vehicle
Unknown
Launch site
Air Force Western Test Range (AFWTR)
Object type
Payload
Rocket body
Debris
Shape & HBR
Unknown shape, 0.1 m
Radar Cross Section
Medium (>0.1 m² and <1 m²)

Expand to show TLE details & history
Last TLE update: 1 day ago

TLE from 1 day ago
0 DELTA 1 DEB
1 10866U 76077CU  25288.48486690  .00000035  00000-0  66289-3 0  9990
2 10866 102.6932 244.5654 0147695 133.7067 349.0575 12.30611545209850
Epoch: 2025-10-15T11:38Z
TLE epoch observation values (Epoch: 2025-10-15T11:38:12.500Z)
Latitude
55.51784°
Longitude
-115.19952°
Altitude
1,440.755 km
Speed
7.198 km/s
True Right ascension
05h 34m 26s
True Declination
55° 22' 16"
Sunlit
Object was in daylight at epoch
Visualization orbit readout
Latitude
Unknown
Longitude
Unknown
Altitude
Unknown
Speed
Unknown
Apparent Right ascension
Unknown
Apparent Declination
Unknown
Sunlit
N/A
Visualization observer readout
Local Sidereal Time
09:11:02
Azimuth
Unknown
Elevation
Unknown
Doppler factor
Unknown
Orbital elements
Apogee altitude
1,661.293 km
Perigee altitude
1,427.273 km
Semi-major axis
7,922.42 km
Eccentricity
0.01477
Inclination
102.6932°
RAAN
244.5654°
Arg. of periapsis
133.7067°
True anomaly
348.73031°
Mean anomaly
349.0575°
Eccentric anomaly
348.8945°
Mean motion
3.07791 °/min
Orbital period
116.96 mins
BSTAR
0.00066289
Loading maneuver chart data...
Computing Atmospheric mass density...
Loading historical data...
Loading historical data...
Loading historical data...
Loading historical data...
Loading historical data...
Loading historical data...
Loading historical data...

Documentation

Showing up to 5 results
|